Location: *
(37.5724°S, 58.0067°E)
Time: 10:00:59
(UTC+00:00)

Cosmos 1980 - Pass Details

Date: 31 January 2021
Orbit: 840 x 846 km, 71.0° (Epoch: 07 March)

Event Time Altitude Azimuth Distance (km) Brightness Sun altitude
Rises 19:41:07 0° 187° (S) 3,441 7.9 -34.5°
Reaches altitude 10° 19:44:38 10° 166° (SSE) 2,498 6.8 -34.6°
Maximum altitude 19:48:06 16° 128° (SE) 2,082 6.0 -34.7°
Enters shadow 19:48:46 16° 120° (ESE) 2,097 5.9 -34.7°
